Flag for Canada Weather past 2 weeks in Hay River, Northwest Territories, Canada

Now
70 °F

Partly sunny.


Feels Like: 70 °F
Forecast: 68 / 82 °F
Wind: 6 mph from East

Location: Hay River

Current Time: Jul 22, 2014 at 10:22:48 PM

Latest Report: Jul 22, 2014 at 10:00 PM


Visibility: 15 mi

Pressure: 30.00 "Hg

Humidity: 69%

Dew point: 59 °F

Location of Hay RiverLocation

Historic Weather in Hay River — Graph

°F

Hay River temperature yesterday

Maximum temperature yesterday: 77 °F (at 2:00 PM)
Minimum temperature yesterday: 48 °F (at 4:00 AM)
Average temperature yesterday: 64 °F

Past Weeks' High & Low Weather Summary

 TemperatureHumidityPressure
High88 °F (Jul 13, 6:00 PM)100% (Jul 9, 8:00 AM)30.16 "Hg (Jul 9, 8:00 AM)
Low43 °F (Jul 20, 5:00 AM)31% (Jul 12, 5:00 PM)29.53 "Hg (Jul 19, 2:00 AM)
Average64 °F63%29.83 "Hg
* Reported Jul 7 9:00 PM — Jul 22 9:00 PM, Hay River, Weather by CustomWeather, © 2014

Note: Actual official high and low records may vary slightly from our data, if they occured in-between our weather recording intervals... More about our weather records

Advertising

Hay River weather history for previous 24 hours

 ConditionsComfort  
Time TempWeatherWind HumidityBarometerVisibility
9:00 PM
Jul 22
75 °FScattered clouds.7 mph50%30.00 "Hg15 mi
8:00 PM77 °FScattered clouds.7 mph47%30.00 "Hg15 mi
7:00 PM77 °FPartly sunny.9 mph47%30.01 "Hg15 mi
6:00 PM77 °FScattered clouds.7 mph51%30.01 "Hg15 mi
5:00 PM73 °FBroken clouds.8 mph57%30.02 "Hg15 mi
10:00 AM73 °FPassing clouds.3 mph53%30.05 "Hg15 mi
9:00 AM68 °FPassing clouds.2 mph69%30.04 "Hg15 mi
8:00 AM64 °FPassing clouds.No wind73%30.03 "Hg15 mi
7:00 AM59 °FPassing clouds.2 mph77%30.03 "Hg15 mi
6:00 AM55 °FPassing clouds.2 mph82%30.02 "Hg15 mi
5:00 AM55 °FPassing clouds.No wind82%30.00 "Hg15 mi
4:00 AM55 °FPassing clouds.1 mph82%29.99 "Hg15 mi
3:00 AM59 °FPassing clouds.5 mph72%29.98 "Hg15 mi
2:00 AM63 °FPassing clouds.7 mph64%29.97 "Hg15 mi
1:00 AM63 °FPassing clouds.6 mph68%29.96 "Hg15 mi
12:00 AM63 °FPassing clouds.2 mph68%29.94 "Hg15 mi
11:00 PM
Jul 21
66 °FScattered clouds.6 mph60%29.93 "Hg15 mi
10:00 PM66 °FScattered clouds.No wind60%29.92 "Hg15 mi
Weather by CustomWeather, © 2014

See weather overviewHow to use our weather pages